{"data":{"norad_id":69323,"epoch":"2026-09-19T21:04:41.651904Z","epoch_age_seconds":84563,"freshness":"FRESH","line1":"1 69323U 26120D   26262.87825986  .00001919  00000+0  10463-3 0  9991","line2":"2 69323  55.0078 327.1985 0010666 196.9646 163.1018 15.19303097 17180","mean_motion":15.19303097,"eccentricity":0.0010666,"inclination_deg":55.0078,"raan_deg":327.1985,"arg_perigee_deg":196.9646,"mean_anomaly_deg":163.1018,"bstar":0.00010463,"rev_number":1718,"period_min":94.780297811767,"perigee_km":500.60087350568,"apogee_km":515.29026484224,"semimajor_km":6886.082569174,"source":"CELESTRAK","updated_at":"2026-09-20T09:00:24.818318Z"}}